Flag for Greece Weather past 2 weeks in Piraeus, Greece

57 °F

Passing clouds.

Feels Like: 56 °F
Forecast: 48 / 60 °F
Wind: 7 mph from Southwest

Location: Elefsis Airport

Current Time: Nov 29, 2015 at 2:19:42 AM

Latest Report: Nov 29, 2015 at 12:50 AM

Visibility: N/A

Pressure: 29.98 "Hg

Humidity: 55%

Dew point: 41 °F

Location of PiraeusLocation

Historic Weather in Piraeus — Graph


Piraeus temperature yesterday

Maximum temperature yesterday: 63 °F (at 12:20 PM)
Minimum temperature yesterday: 50 °F (at 7:50 AM)
Average temperature yesterday: 57 °F

Past Weeks' High & Low Weather Summary

High73 °F (Nov 14, 3:20 PM)100% (Nov 21, 2:50 AM)30.30 "Hg (Nov 21, 2:50 AM)
Low48 °F (Nov 19, 3:20 AM)38% (Nov 17, 11:20 AM)29.50 "Hg (Nov 26, 1:50 AM)
Average62 °F71%29.94 "Hg
* Reported Nov 14 12:20 AM — Nov 29 12:50 AM, Piraeus, Weather by CustomWeather, © 2015

Note: Actual official high and low records may vary slightly from our data, if they occured in-between our weather recording intervals... More about our weather records


Piraeus weather history for previous 24 hours

Time TempWeatherWind HumidityBarometerVisibility
12:50 AM
Sun, Nov 29
57 °FPassing clouds.7 mph55%29.98 "HgN/A
11:50 PM
Sat, Nov 28
55 °FPassing clouds.7 mph63%29.98 "HgN/A
10:50 PM55 °FPassing clouds.6 mph59%29.95 "HgN/A
10:20 PM59 °FPassing clouds.No wind51%29.95 "HgN/A
9:50 PM57 °FPassing clouds.7 mph63%29.95 "HgN/A
9:20 PM57 °FPassing clouds.8 mph63%29.95 "HgN/A
8:50 PM55 °FPassing clouds.6 mph67%29.92 "HgN/A
8:20 PM54 °FPassing clouds.No wind72%29.92 "HgN/A
7:50 PM57 °FPassing clouds.No wind63%29.92 "HgN/A
7:20 PM59 °FPassing clouds.No wind59%29.89 "HgN/A
6:50 PM55 °FPassing clouds.3 mph72%29.89 "HgN/A
6:20 PM59 °FPassing clouds.5 mph59%29.86 "HgN/A
5:50 PM59 °FPassing clouds.No wind63%29.86 "HgN/A
5:20 PM59 °FPassing clouds.5 mph68%29.83 "HgN/A
4:50 PM59 °FPassing clouds.5 mph68%29.83 "HgN/A
4:20 PM61 °FPassing clouds.9 mph59%29.83 "HgN/A
3:50 PM61 °FPassing clouds.9 mph55%29.80 "HgN/A
3:20 PM63 °FPassing clouds.8 mph52%29.80 "HgN/A
2:50 PM63 °FPassing clouds.7 mph56%29.77 "HgN/A
2:20 PM63 °FPassing clouds.10 mph52%29.77 "HgN/A
1:50 PM63 °FPassing clouds.8 mph56%29.77 "HgN/A
1:20 PM63 °FScattered clouds.7 mph56%29.77 "HgN/A
12:50 PM63 °FScattered clouds.8 mph64%29.77 "HgN/A
12:20 PM63 °FScattered clouds.6 mph64%29.80 "HgN/A
11:50 AM59 °FScattered clouds.No wind72%29.80 "HgN/A
11:20 AM59 °FScattered clouds.No wind72%29.80 "HgN/A
10:50 AM59 °FScattered clouds.No wind72%29.80 "HgN/A
10:20 AM57 °FDrizzle. Broken clouds.No wind82%29.80 "Hg6 mi
9:50 AM57 °FPartly sunny.No wind82%29.80 "HgN/A
9:20 AM57 °FLight rain. Partly sunny.No wind82%29.80 "HgN/A
8:50 AM55 °FPartly sunny.No wind82%29.80 "HgN/A
8:20 AM54 °FScattered clouds.No wind88%29.77 "HgN/A
7:50 AM50 °FPassing clouds.3 mph94%29.77 "HgN/A
6:50 AM52 °FPassing clouds.3 mph82%29.74 "HgN/A
6:20 AM52 °FPartly cloudy.3 mph88%29.74 "HgN/A
5:20 AM54 °FPartly cloudy.No wind88%29.74 "HgN/A
4:50 AM54 °FLight rain. Partly cloudy.3 mph82%29.71 "Hg4 mi
4:20 AM54 °FLight rain. Partly cloudy.3 mph82%29.77 "Hg4 mi
3:50 AM54 °FLight rain. Partly cloudy.3 mph88%29.77 "Hg4 mi
3:20 AM54 °FLight rain. Partly cloudy.No wind82%29.77 "Hg4 mi
2:50 AM54 °FLight rain. Partly cloudy.No wind82%29.77 "Hg4 mi
Weather by CustomWeather, © 2015

See weather overviewHow to use our weather pages